Date String (YYYY-MM-DD hh:mm:ss) UTC,Instrument flags,absolute air pressure of the measurement (hPa),sample flow rate (lpm),inlet stack bypass flow (lpm),air temperature of the measurement (°C),ambient temperature measured by the external sensor (°C),aerosol sample conditioner tube jacket temperature (°C),OPC LED temperature (°C),internal box temperature (°C),relative humidity of the measurement (%),span deviation,mass concentration of particles derived from Lorenz-Mie calculation of OPC scattering (μg/m³),mass concentration of particles derived from Lorenz-Mie calculation of OPC scattering (μg/m³),mass concentration of particles derived from Lorenz-Mie calculation of OPC scattering (μg/m³)
DateTimeUTC,F1_M11,P_M11,Q1_M11,Q2_M11,T1_M11,T2_M11,T3_M11,T4_M11,T5_M11,U1_M11,ZSPAN_M11,X0_M11,X2_M11,X1_M11
2023-12-30 17:00:00,SystemResetWarning,0830.4,5.00,000.00,021.9,021.3,000.0,030.0,023.4,10.9,0000.0,0004.49,0003.13,0002.93
2023-12-30 17:01:00,SystemResetWarning,0830.4,5.00,000.00,021.9,021.4,000.0,030.0,023.4,10.9,0000.0,0004.63,0003.21,0003.01
2023-12-30 17:02:00,SystemResetWarning,0830.4,5.00,000.00,021.9,021.4,000.0,030.0,023.5,10.9,0000.0,0004.75,0003.28,0003.09
2023-12-30 17:03:00,SystemResetWarning,0830.4,5.01,000.00,021.9,021.4,000.0,030.1,023.5,11.0,0000.0,0004.93,0003.36,0003.11
2023-12-30 17:04:00,SystemResetWarning,0830.3,5.00,000.00,022.0,021.4,000.0,030.1,023.5,11.3,0000.0,0005.10,0003.40,0003.12
2023-12-30 17:05:00,SystemResetWarning,0830.3,5.00,000.00,022.0,021.4,000.0,030.1,023.5,11.1,0000.0,0005.31,0003.46,0003.14
2023-12-30 17:06:00,SystemResetWarning,0830.3,4.99,000.00,022.0,021.5,000.0,030.1,023.6,11.1,0000.0,0005.26,0003.48,0003.17
2023-12-30 17:07:00,SystemResetWarning,0830.3,4.99,000.00,022.0,021.5,000.0,030.1,023.6,10.7,0000.0,0005.17,0003.51,0003.19
2023-12-30 17:08:00,SystemResetWarning,0830.3,5.00,000.00,022.0,021.5,000.0,030.2,023.6,10.4,0000.0,0005.36,0003.55,0003.21
2023-12-30 17:09:00,SystemResetWarning,0830.3,5.00,000.00,022.1,021.5,000.0,030.2,023.6,10.1,0000.0,0005.66,0003.57,0003.23
2023-12-30 17:10:00,SystemResetWarning,0830.3,5.01,000.00,022.1,021.5,000.0,030.2,023.6,10.5,0000.0,0005.91,0003.62,0003.25
2023-12-30 17:11:00,SystemResetWarning,0830.4,5.00,000.00,022.1,021.6,000.0,030.2,023.7,10.9,0000.0,0006.50,0003.67,0003.29
2023-12-30 17:12:00,SystemResetWarning,0830.3,5.00,000.00,022.1,021.6,000.0,030.2,023.7,10.7,0000.0,0006.77,0003.69,0003.31
2023-12-30 17:13:00,SystemResetWarning,0830.4,5.00,000.00,022.1,021.6,000.0,030.3,023.7,10.4,0000.0,0006.74,0003.69,0003.33
2023-12-30 17:14:00,SystemResetWarning,0830.3,5.00,000.00,022.2,021.6,000.0,030.3,023.7,10.1,0000.0,0006.61,0003.68,0003.35
2023-12-30 17:15:00,SystemResetWarning,0830.4,5.00,000.00,022.2,021.6,000.0,030.3,023.7,9.4,0000.0,0007.11,0003.74,0003.38
2023-12-30 17:16:00,SystemResetWarning,0830.4,5.00,000.00,022.2,021.7,000.0,030.3,023.8,10.3,0000.0,0007.21,0003.75,0003.40
2023-12-30 17:17:00,SystemResetWarning,0830.3,5.00,000.00,022.2,021.7,000.0,030.3,023.8,10.1,0000.0,0007.34,0003.78,0003.42
2023-12-30 17:18:00,SystemResetWarning,0830.3,5.00,000.00,022.2,021.7,000.0,030.4,023.8,9.9,0000.0,0007.40,0003.81,0003.44
2023-12-30 17:19:00,SystemResetWarning,0830.3,5.00,000.00,022.3,021.7,000.0,030.4,023.8,9.4,0000.0,0007.34,0003.83,0003.46
2023-12-30 17:20:00,SystemResetWarning,0830.3,5.00,000.00,022.3,021.7,000.0,030.4,023.8,9.2,0000.0,0007.33,0003.86,0003.47
2023-12-30 17:21:00,SystemResetWarning,0830.3,5.00,000.00,022.3,021.8,000.0,030.4,023.9,9.7,0000.0,0007.46,0003.90,0003.49
2023-12-30 17:22:00,SystemResetWarning,0830.3,5.00,000.00,022.3,021.8,000.0,030.4,023.9,9.7,0000.0,0007.18,0003.90,0003.49
2023-12-30 17:23:00,SystemResetWarning,0830.3,5.00,000.00,022.3,021.8,000.0,030.5,023.9,9.7,0000.0,0007.12,0003.92,0003.48
2023-12-30 17:24:00,SystemResetWarning,0830.3,5.00,000.00,022.3,021.8,000.0,030.5,023.9,9.6,0000.0,0007.11,0003.92,0003.48
2023-12-30 17:25:00,SystemResetWarning,0830.3,5.00,000.00,022.4,021.8,000.0,030.5,023.9,9.5,0000.0,0006.99,0003.91,0003.48
2023-12-30 17:26:00,SystemResetWarning,0830.3,5.00,000.00,022.4,021.8,000.0,030.5,023.9,9.4,0000.0,0006.52,0003.87,0003.48
2023-12-30 17:27:00,SystemResetWarning,0830.2,5.00,000.00,022.4,021.9,000.0,030.5,023.9,9.5,0000.0,0006.31,0003.86,0003.49
2023-12-30 17:28:00,SystemResetWarning,0830.2,5.00,000.00,022.4,021.9,000.0,030.5,024.0,9.6,0000.0,0006.32,0003.87,0003.50
2023-12-30 17:29:00,SystemResetWarning,0830.3,5.00,000.00,022.4,021.9,000.0,030.6,024.0,9.4,0000.0,0006.50,0003.88,0003.51
2023-12-30 17:30:00,SystemResetWarning,0830.3,5.00,000.00,022.4,021.9,000.0,030.6,024.0,9.4,0000.0,0006.54,0003.87,0003.51
2023-12-30 17:31:00,SystemResetWarning,0830.3,5.00,000.00,022.5,021.9,000.0,030.6,024.0,9.3,0000.0,0006.47,0003.88,0003.53
2023-12-30 17:32:00,SystemResetWarning,0830.3,5.00,000.00,022.5,021.9,000.0,030.6,024.0,9.5,0000.0,0006.57,0003.89,0003.55
2023-12-30 17:33:00,SystemResetWarning,0830.3,5.00,000.00,022.5,022.0,000.0,030.6,024.1,9.7,0000.0,0006.80,0003.92,0003.57
2023-12-30 17:34:00,SystemResetWarning,0830.3,5.00,000.00,022.5,022.0,000.0,030.6,024.1,9.8,0000.0,0006.76,0003.94,0003.61
2023-12-30 17:35:00,SystemResetWarning,0830.3,5.00,000.00,022.6,022.0,000.0,030.7,024.1,9.8,0000.0,0006.85,0003.99,0003.64
2023-12-30 17:36:00,SystemResetWarning,0830.2,5.00,000.00,022.6,022.0,000.0,030.7,024.1,9.8,0000.0,0006.95,0004.05,0003.69
2023-12-30 17:37:00,SystemResetWarning,0830.2,4.99,000.00,022.6,022.0,000.0,030.7,024.1,9.8,0000.0,0007.19,0004.08,0003.73
2023-12-30 17:38:00,SystemResetWarning,0830.2,5.00,000.00,022.6,022.0,000.0,030.7,024.1,9.8,0000.0,0007.61,0004.15,0003.77
2023-12-30 17:39:00,SystemResetWarning,0830.1,5.00,000.00,022.6,022.1,000.0,030.7,024.1,9.8,0000.0,0007.74,0004.17,0003.80
2023-12-30 17:40:00,SystemResetWarning,0830.1,5.00,000.00,022.6,022.1,000.0,030.8,024.2,9.9,0000.0,0007.74,0004.19,0003.83
2023-12-30 17:41:00,SystemResetWarning,0830.1,5.00,000.00,022.7,022.1,000.0,030.8,024.2,9.8,0000.0,0007.79,0004.22,0003.85
2023-12-30 17:42:00,SystemResetWarning,0830.1,5.00,000.00,022.7,022.1,000.0,030.8,024.2,9.9,0000.0,0007.89,0004.25,0003.88
2023-12-30 17:43:00,SystemResetWarning,0830.1,5.00,000.00,022.7,022.1,000.0,030.8,024.2,9.7,0000.0,0007.67,0004.25,0003.89
2023-12-30 17:44:00,SystemResetWarning,0830.1,5.00,000.00,022.7,022.1,000.0,030.8,024.2,9.4,0000.0,0007.67,0004.25,0003.90
2023-12-30 17:45:00,SystemResetWarning,0830.1,5.01,000.00,022.7,022.2,000.0,030.8,024.2,9.2,0000.0,0007.69,0004.25,0003.91
2023-12-30 17:46:00,SystemResetWarning,0830.1,5.00,000.00,022.7,022.2,000.0,030.9,024.3,9.5,0000.0,0007.66,0004.25,0003.92
2023-12-30 17:47:00,SystemResetWarning,0830.1,4.99,000.00,022.7,022.2,000.0,030.9,024.3,9.7,0000.0,0007.68,0004.25,0003.92
2023-12-30 17:48:00,SystemResetWarning,0830.1,4.99,000.00,022.8,022.2,000.0,030.9,024.3,9.7,0000.0,0008.23,0004.28,0003.93
2023-12-30 17:49:00,SystemResetWarning,0830.1,5.00,000.00,022.8,022.2,000.0,030.9,024.3,9.8,0000.0,0008.25,0004.30,0003.94
2023-12-30 17:50:00,SystemResetWarning,0830.1,5.00,000.00,022.8,022.2,000.0,030.9,024.3,9.4,0000.0,0008.12,0004.30,0003.95
2023-12-30 17:51:00,SystemResetWarning,0830.0,5.00,000.00,022.8,022.2,000.0,030.9,024.3,9.4,0000.0,0008.03,0004.31,0003.96
2023-12-30 17:52:00,SystemResetWarning,0830.0,5.00,000.00,022.8,022.3,000.0,031.0,024.3,9.7,0000.0,0008.06,0004.34,0003.98
2023-12-30 17:53:00,SystemResetWarning,0830.0,5.00,000.00,022.8,022.3,000.0,031.0,024.3,9.4,0000.0,0007.95,0004.34,0003.99
2023-12-30 17:54:00,SystemResetWarning,0830.1,5.00,000.00,022.9,022.3,000.0,031.0,024.4,9.4,0000.0,0008.03,0004.36,0004.00
2023-12-30 17:55:00,SystemResetWarning,0830.1,5.00,000.00,022.9,022.3,000.0,031.0,024.4,9.4,0000.0,0008.36,0004.37,0004.01
2023-12-30 17:56:00,SystemResetWarning,0830.1,5.00,000.00,022.9,022.3,000.0,031.0,024.4,9.4,0000.0,0008.51,0004.38,0004.01
2023-12-30 17:57:00,SystemResetWarning,0830.0,5.00,000.00,022.9,022.3,000.0,031.0,024.5,9.2,0000.0,0008.60,0004.39,0004.01
2023-12-30 17:58:00,SystemResetWarning,0830.0,5.00,000.00,022.9,022.3,000.0,031.1,024.5,9.4,0000.0,0008.56,0004.37,0004.02
2023-12-30 17:59:00,SystemResetWarning,0830.0,4.99,000.00,022.9,022.4,000.0,031.1,024.5,9.8,0000.0,0008.21,0004.37,0004.02
